星链-1957 (STARLINK-1957 )

导读 | 星芒AI

STARLINK-1957 是 SpaceX Starlink 项目中的第 1957 颗卫星,属于其低轨卫星互联网星座的一部分。该卫星于 2023 年发射,旨在为全球用户提供高速、低延迟的互联网服务。它运行在约 550 公里的近地轨道上,配备先进的通信设备和激光链路,以支持星间通信。作为 Starlink 计划的重要组成部分,STARLINK-1957 有助于扩大网络覆盖范围,提升服务稳定性和数据传输效率,特别是在偏远和网络基础设施薄弱的地区。

基本信息
目录编号:
47558
目录名称:
STARLINK-1957
国际标识:
2021-009L
轨道中心:
EARTH
卫星名称:
星链-1957
卫星全名:
星链-1957 (STARLINK-1957 )
卫星状态:
已陨落 最后检测时间 2025-06-10
发射日期:
2021-02-04 UTC
国别 :
美国 (US)
星等 :
--
轨道信息
数据来源 国际轨道数据
星历时间: 2025-06-10T16:21:24+0800
轨道信息已过期189天
半长轴: 6539.383km
偏心率: 0.0003661
轨道倾角: 53.031°
近地点辐角 253.394°
升交点赤经 105.746°
平近点角 249.117°
近地点: 158.853km
远地点: 163.643km
周期: 87.713分钟
每日圈数: 16.417145
详细信息
固有亮度:
5
最大亮度:
2.5
卫星平台:
Starlink V1.0
覆盖范围:
全球
运营商:
太空探索技术公司
运营商所在国:
美国
制造商(研发单位):
太空探索技术公司
制造商所在国:
美国
使用方式:
暂无
卫星简介
星链(Starlink)计划是由太空探索技术公司(SpaceX)提出的一个巨型低轨卫星互联网星座项目,计划在2019年至2024年间在太空搭建由约1.2万颗卫星组成的“星链”网络,其中1584颗将部署在地球上空550千米处的近地轨道,并从2020年开始工作。该卫星仍在工作。